Weather History for Cody, WY

Change the Weather History Date:

Saturday, January 12, 2013

  Actual Average Record
Temperature  
Mean Temperature 0 °F -  
Max Temperature 6 °F 31 °F 60 °F (1959)
Min Temperature -5 °F 10 °F -29 °F (1963)
Degree Days  
Heating Degree Days 64    
Moisture  
Dew Point 0 °F    
Average Humidity 89    
Maximum Humidity 100    
Minimum Humidity 72    
Precipitation  
Precipitation 0.00 in - - ()
Sea Level Pressure  
Sea Level Pressure 29.96 in    
Wind  
Wind Speed 3 mph (ENE)    
Max Wind Speed 7 mph    
Max Gust Speed -    
Visibility 8 miles    
Events      
Averages and records for this station are not official NWS values.
T = Trace of Precipitation, MM = Missing Value Source: NWS Daily Summary

Daily Weather History Graph

Daily Weather History Graph

Search for Another Location

Airport:

Trip Planner

Search our weather history database for the weather conditions in past years. The results will help you decide how hot, cold, wet, or windy it might be!

Date:

Astronomy

Jan. 12, 2013 Rise Set
Actual Time 7:50 AM MST 4:59 PM MST
Civil Twilight 7:17 AM MST 5:31 PM MST
Nautical Twilight 6:41 AM MST 6:07 PM MST
Astronomical Twilight 6:06 AM MST 6:42 PM MST
Moon 8:07 AM MST (1/12) 6:36 PM MST (1/12)
Length of Visible Light 10h 13m
Length of Day
9h 08m
New Moon, 1% of the Moon is Illuminated
Jan 12
New Moon
Jan 18
First Quarter
Jan 26
Full
Feb 3
Last Quarter
Feb 10
New

Hourly Weather History & Observations

Time (MST) Temp. Windchill Dew Point Humidity Pressure Visibility Wind Dir Wind Speed Gust Speed Precip Events Conditions
12:15 AM 5.0 °F -4.1 °F 1.4 °F 85% 29.94 in 3.0 mi NNW 4.6 mph - N/A   Overcast
12:35 AM 3.2 °F -9.1 °F 1.4 °F 92% 29.94 in 5.0 mi North 6.9 mph - N/A   Overcast
12:55 AM 3.2 °F -7.8 °F -0.4 °F 85% 29.94 in 5.0 mi North 5.8 mph - N/A   Overcast
1:15 AM 3.2 °F -6.2 °F 1.4 °F 92% 29.94 in 9.0 mi NNW 4.6 mph - N/A   Overcast
1:35 AM 3.2 °F -4.2 °F 1.4 °F 92% 29.94 in 9.0 mi North 3.5 mph - N/A   Mostly Cloudy
1:55 AM 3.2 °F - 1.4 °F 92% 29.94 in 10.0 mi Calm Calm - N/A   Scattered Clouds
2:15 AM 3.2 °F -9.1 °F -0.4 °F 85% 29.95 in 10.0 mi NE 6.9 mph - N/A   Mostly Cloudy
2:55 AM 3.2 °F - 1.4 °F 92% 29.95 in 10.0 mi Calm Calm - N/A   Overcast
3:15 AM 3.2 °F - 1.4 °F 92% 29.95 in 10.0 mi Calm Calm - N/A   Overcast
3:36 AM 3.2 °F -7.8 °F 1.4 °F 92% 29.94 in 10.0 mi ENE 5.8 mph - N/A   Overcast
3:55 AM 3.2 °F -4.2 °F 1.4 °F 92% 29.94 in 7.0 mi ENE 3.5 mph - N/A   Overcast
4:15 AM 1.4 °F -8.3 °F -0.4 °F 92% 29.93 in 10.0 mi NE 4.6 mph - N/A   Overcast
4:35 AM 1.4 °F -8.3 °F 1.4 °F 100% 29.93 in 10.0 mi NE 4.6 mph - N/A   Overcast
4:55 AM 1.4 °F - 1.4 °F 100% 29.93 in 10.0 mi Calm Calm - N/A   Mostly Cloudy
5:35 AM 1.4 °F - -0.4 °F 92% 29.93 in 10.0 mi Calm Calm - N/A   Overcast
5:55 AM 1.4 °F - -0.4 °F 92% 29.92 in 10.0 mi Calm Calm - N/A   Overcast
6:15 AM -0.4 °F - -0.4 °F 100% 29.93 in 10.0 mi Calm Calm - N/A   Mostly Cloudy
6:35 AM -0.4 °F - -2.2 °F 92% 29.93 in 7.0 mi Calm Calm - N/A   Mostly Cloudy
6:55 AM 1.4 °F - -0.4 °F 92% 29.94 in 7.0 mi Calm Calm - N/A   Mostly Cloudy
7:15 AM -0.4 °F - -2.2 °F 92% 29.94 in 7.0 mi Calm Calm - N/A   Overcast
7:35 AM -0.4 °F - -4.0 °F 85% 29.94 in 5.0 mi Calm Calm - N/A   Overcast
7:55 AM -4.0 °F - -7.6 °F 85% 29.95 in 9.0 mi Calm Calm - N/A   Mostly Cloudy
8:15 AM -4.0 °F - -5.8 °F 92% 29.95 in 10.0 mi Calm Calm - N/A   Clear
8:35 AM -4.0 °F - -5.8 °F 92% 29.96 in 10.0 mi Calm Calm - N/A   Clear
8:55 AM -5.8 °F -16.7 °F -7.6 °F 92% 29.96 in 10.0 mi SSE 4.6 mph - N/A   Clear
9:15 AM -5.8 °F -16.7 °F -5.8 °F 100% 29.96 in 10.0 mi South 4.6 mph - N/A   Clear
9:35 AM -5.8 °F -16.7 °F -5.8 °F 100% 29.97 in 10.0 mi South 4.6 mph - N/A   Scattered Clouds
9:55 AM -2.2 °F - -2.2 °F 100% 29.97 in 10.0 mi Calm Calm - N/A   Mostly Cloudy
10:15 AM -0.4 °F -8.3 °F -2.2 °F 92% 29.97 in 10.0 mi South 3.5 mph - N/A   Overcast
10:55 AM 1.4 °F -6.2 °F -0.4 °F 92% 29.97 in 10.0 mi SW 3.5 mph - N/A   Mostly Cloudy
11:15 AM 3.2 °F -6.2 °F -0.4 °F 85% 29.97 in 10.0 mi SSW 4.6 mph - N/A   Mostly Cloudy
11:35 AM 3.2 °F -4.2 °F -0.4 °F 85% 29.96 in 10.0 mi South 3.5 mph - N/A   Mostly Cloudy
11:55 AM 3.2 °F - -0.4 °F 85% 29.95 in 10.0 mi Calm Calm - N/A   Mostly Cloudy
12:15 PM 5.0 °F - -0.4 °F 78% 29.94 in 10.0 mi Calm Calm - N/A   Scattered Clouds
12:36 PM 5.0 °F -2.1 °F -2.2 °F 72% 29.94 in 10.0 mi ENE 3.5 mph - N/A   Scattered Clouds
12:55 PM 5.0 °F -2.1 °F -0.4 °F 78% 29.94 in 10.0 mi NE 3.5 mph - N/A   Mostly Cloudy
1:15 PM 6.8 °F - -0.4 °F 72% 29.94 in 10.0 mi Calm Calm - N/A   Mostly Cloudy
1:35 PM 6.8 °F - 1.4 °F 79% 29.94 in 4.0 mi Calm Calm - N/A   Overcast
1:55 PM 6.8 °F - 1.4 °F 79% 29.94 in 5.0 mi Calm Calm - N/A   Overcast
2:15 PM 6.8 °F - 1.4 °F 79% 29.95 in 5.0 mi Calm Calm - N/A   Overcast
2:35 PM 6.8 °F - 1.4 °F 79% 29.95 in 8.0 mi Calm Calm - N/A   Overcast
2:55 PM 6.8 °F -0.1 °F 1.4 °F 79% 29.96 in 7.0 mi NE 3.5 mph - N/A   Overcast
3:15 PM 6.8 °F -0.1 °F 1.4 °F 79% 29.96 in 6.0 mi NE 3.5 mph - N/A   Overcast
3:35 PM 6.8 °F -0.1 °F 1.4 °F 79% 29.97 in 7.0 mi NE 3.5 mph - N/A   Mostly Cloudy
3:55 PM 6.8 °F - 1.4 °F 79% 29.97 in 10.0 mi Calm Calm - N/A   Partly Cloudy
4:15 PM 6.8 °F - 1.4 °F 79% 29.97 in 10.0 mi Calm Calm - N/A   Mostly Cloudy
4:35 PM 6.8 °F - 3.2 °F 85% 29.97 in 5.0 mi Calm Calm - N/A   Overcast
4:55 PM 5.0 °F -2.1 °F 1.4 °F 85% 29.97 in 5.0 mi NNE 3.5 mph - N/A   Overcast
5:15 PM 5.0 °F - 3.2 °F 92% 29.97 in 4.0 mi Calm Calm - N/A   Overcast
5:35 PM 5.0 °F - 3.2 °F 92% 29.97 in 5.0 mi Calm Calm - N/A   Overcast
5:55 PM 5.0 °F - 3.2 °F 92% 29.97 in 3.0 mi Calm Calm - N/A   Overcast
6:35 PM 5.0 °F - 3.2 °F 92% 29.98 in 7.0 mi Calm Calm - N/A   Overcast
6:55 PM 3.2 °F - 1.4 °F 92% 29.98 in 7.0 mi Calm Calm - N/A   Overcast
7:15 PM 3.2 °F -6.2 °F 1.4 °F 92% 29.98 in 7.0 mi South 4.6 mph - N/A   Overcast
7:35 PM 3.2 °F -4.2 °F 1.4 °F 92% 29.98 in 10.0 mi South 3.5 mph - N/A   Overcast
8:15 PM 3.2 °F - 3.2 °F 100% 29.98 in 6.0 mi Calm Calm - N/A   Overcast
8:55 PM 3.2 °F - 1.4 °F 92% 29.98 in 5.0 mi Calm Calm - N/A   Overcast
9:15 PM 3.2 °F - 1.4 °F 92% 29.97 in 5.0 mi Calm Calm - N/A   Overcast
9:35 PM 3.2 °F - 1.4 °F 92% 29.97 in 5.0 mi Calm Calm - N/A   Overcast
9:55 PM 3.2 °F - 3.2 °F 100% 29.97 in 5.0 mi Calm Calm - N/A   Overcast
10:15 PM 3.2 °F - 1.4 °F 92% 29.98 in 4.0 mi Calm Calm - N/A   Overcast
10:35 PM 3.2 °F - 1.4 °F 92% 29.98 in 5.0 mi Calm Calm - N/A   Overcast
10:55 PM 3.2 °F - 1.4 °F 92% 29.99 in 5.0 mi Calm Calm - N/A   Overcast
11:16 PM 3.2 °F - 1.4 °F 92% 29.98 in 5.0 mi Calm Calm - N/A   Overcast
11:35 PM 3.2 °F -4.2 °F 1.4 °F 92% 29.99 in 6.0 mi WSW 3.5 mph - N/A   Overcast
11:55 PM 3.2 °F - 1.4 °F 92% 29.99 in 10.0 mi Calm Calm - N/A   Overcast